Location: Black Forest
(43.4794°N, 75.0081°W)
Time: 09:20:14
(UTC-04:00)

ISS - All Passes

Search period start: 28 July 2015 00:00
Search period end: 07 August 2015 00:00
Orbit: 401 x 403 km, 51.6° (Epoch: 28 July)

Date Brightness Start Highest point End Pass type
(mag) Time Alt. Az. Time Alt. Az. Time Alt. Az.
28 Jul - 00:59:02 10° W 01:01:58 29° NNW 01:04:54 10° NE visible
28 Jul - 02:36:40 10° NW 02:39:06 19° N 02:41:33 10° NE visible
28 Jul - 04:13:11 10° NW 04:16:13 33° NNE 04:19:14 10° E visible
28 Jul - 05:49:36 10° WNW 05:52:42 42° SW 05:55:48 10° SSE daylight
28 Jul - 22:29:30 10° SSW 22:32:20 29° SE 22:35:13 10° ENE night (unlit)
29 Jul - 00:05:33 10° W 00:08:40 42° NNW 00:11:47 10° NE visible
29 Jul - 01:43:12 10° NW 01:45:40 19° N 01:48:08 10° NE visible
29 Jul - 03:20:03 10° NW 03:22:49 25° NNE 03:25:36 10° ENE visible
29 Jul - 04:56:16 10° WNW 04:59:31 80° SW 05:02:46 10° SE visible
29 Jul - 06:34:56 10° WSW 06:35:27 10° SW 06:35:51 10° SW daylight
29 Jul - 21:36:59 10° S 21:38:58 16° SE 21:41:02 10° E visible
29 Jul - 23:11:47 10° WSW 23:15:02 70° NNW 23:18:17 10° NE night (unlit)
30 Jul - 00:49:12 10° WNW 00:51:50 22° NNW 00:54:28 10° NE visible
30 Jul - 02:26:26 10° NW 02:28:58 21° N 02:31:32 10° ENE visible
30 Jul - 04:02:38 10° NW 04:05:50 57° NNE 04:09:02 10° ESE visible
30 Jul - 05:39:32 10° W 05:41:59 19° SW 05:44:21 10° S daylight
30 Jul - 22:17:51 10° SW 22:21:04 63° SE 22:24:17 10° ENE visible
30 Jul - 23:54:45 10° W 23:57:37 27° NNW 00:00:28 10° NE visible
31 Jul - 01:32:16 10° NW 01:34:41 19° N 01:37:06 10° NE visible
31 Jul - 03:08:39 10° NW 03:11:41 35° NNE 03:14:42 10° E visible
31 Jul - 04:45:01 10° WNW 04:48:02 36° SW 04:51:02 10° SSE visible
31 Jul - 21:23:51 10° SSW 21:26:46 32° SE 21:29:43 10° ENE visible
31 Jul - 22:59:58 10° W 23:03:03 39° NNW 23:06:07 10° NE visible
01 Aug - 00:37:33 10° NW 00:40:00 19° N 00:42:24 10° NE visible
01 Aug - 02:14:16 10° NW 02:17:02 26° NNE 02:19:49 10° ENE visible
01 Aug - 03:50:24 10° WNW 03:53:37 73° SW 03:56:48 10° SE visible
01 Aug - 20:30:00 10° S 20:32:08 17° SE 20:34:21 10° E daylight
01 Aug - 22:04:55 10° WSW 22:08:09 65° NNW 22:11:23 10° NE visible
01 Aug - 23:42:18 10° WNW 23:44:53 21° N 23:47:27 10° NE visible
02 Aug - 01:19:24 10° NW 01:21:57 21° N 01:24:29 10° ENE visible
02 Aug - 02:55:30 10° NW 02:58:42 60° NNE 03:01:52 10° ESE night (unlit)
02 Aug - 04:32:27 10° W 04:34:43 18° SW 04:36:56 10° S visible
02 Aug - 21:09:42 10° SW 21:12:55 67° SE 21:16:09 10° ENE visible
02 Aug - 22:46:35 10° WNW 22:49:25 27° NNW 22:52:14 10° NE visible
03 Aug - 00:24:00 10° NW 00:26:24 19° N 00:28:48 10° NE visible
03 Aug - 02:00:17 10° NW 02:03:18 36° NNE 02:06:19 10° E night (unlit)
03 Aug - 03:36:36 10° WNW 03:39:33 34° SW 03:42:28 10° SSE night (unlit)
03 Aug - 20:14:26 10° SSW 20:17:22 33° SE 20:20:21 10° ENE daylight
03 Aug - 21:50:31 10° W 21:53:35 38° NNW 21:56:38 10° NE visible
03 Aug - 23:28:02 10° NW 23:30:26 19° N 23:32:51 10° NE visible
04 Aug - 01:04:38 10° NW 01:07:25 26° NNE 01:10:10 10° ENE visible
04 Aug - 02:40:42 10° WNW 02:43:53 71° SW 02:47:03 10° SE night (unlit)
04 Aug - 19:19:21 10° S 19:21:30 17° SE 19:23:43 10° E daylight
04 Aug - 20:54:13 10° WSW 20:57:26 65° NNW 21:00:39 10° NE visible
04 Aug - 22:31:31 10° WNW 22:34:05 21° N 22:36:39 10° NE visible
05 Aug - 00:08:32 10° NW 00:11:04 21° N 00:13:35 10° ENE visible
05 Aug - 01:44:34 10° NW 01:47:44 60° NNE 01:50:53 10° ESE night (unlit)
05 Aug - 03:21:26 10° W 03:23:40 18° SW 03:25:51 10° S night (unlit)
05 Aug - 19:57:45 10° SW 20:00:58 65° SE 20:04:11 10° ENE daylight
05 Aug - 21:34:31 10° WNW 21:37:21 27° NNW 21:40:11 10° NE visible
05 Aug - 23:11:53 10° NW 23:14:16 19° N 23:16:38 10° NE visible
06 Aug - 00:48:05 10° NW 00:51:05 35° NNE 00:54:04 10° E visible
06 Aug - 02:24:18 10° WNW 02:27:15 35° SW 02:30:10 10° SSE night (unlit)
06 Aug - 19:01:16 10° SSW 19:04:11 31° SE 19:07:07 10° ENE daylight
06 Aug - 20:37:13 10° W 20:40:17 39° NNW 20:43:21 10° NE daylight
06 Aug - 22:14:38 10° NW 22:17:03 19° N 22:19:27 10° NE visible
06 Aug - 23:51:12 10° NW 23:53:56 25° NNE 23:56:40 10° ENE visible
